AA4XD Weather Reports


time (UTC)temp
F
wind
direction
speed
knots
gust
knots
rain 1hr
in
rain 24hr
in
rain mn
in
humidity
%
barometer
mb
20260510145742 84 324 2.6 3.5 0.00 0.01 0.01 79 1015.5
20260510145239 83 0 0.9 1.7 0.00 0.01 0.01 83 1015.7
20260510144734 81 75 0.0 2.6 0.00 0.01 0.01 85 1015.5
20260510144233 81 316 1.7 2.6 0.00 0.01 0.01 85 1015.6
20260510143731 80 80 3.5 3.5 0.00 0.01 0.01 86 1015.7
20260510143229 80 291 0.0 1.7 0.00 0.01 0.01 88 1015.8
20260510142725 79 246 0.0 1.7 0.00 0.01 0.01 90 1015.7
20260510142222 79 283 0.0 1.7 0.00 0.01 0.01 89 1015.7
20260510141719 79 351 1.7 3.5 0.00 0.01 0.01 87 1015.4
20260510141217 78 269 0.0 1.7 0.00 0.01 0.01 90 1015.5
20260510140713 78 350 1.7 2.6 0.00 0.01 0.01 89 1015.4
20260510140214 77 249 0.0 0.9 0.00 0.01 0.01 91 1015.5
20260510135708 77 224 0.0 1.7 0.00 0.01 0.01 91 1015.3
20260510135204 77 299 0.0 0.9 0.00 0.01 0.01 91 1015.3
20260510134702 76 319 0.0 0.9 0.00 0.01 0.01 91 1015.3
20260510134159 76 33 1.7 1.7 0.00 0.01 0.01 91 1015.3
20260510133655 76 235 0.0 0.9 0.02 0.01 0.01 92 1015.3
20260510133150 76 146 0.0 1.7 0.00 0.00 0.00 92 1015.3
20260510132647 76 214 0.9 1.7 0.00 0.00 0.00 91 1015.2
20260510132144 76 249 0.9 1.7 0.00 0.00 0.00 91 1015.1
20260510131642 76 356 0.9 1.7 0.00 0.00 0.00 92 1015.2
20260510131139 76 111 0.9 1.7 0.00 0.00 0.00 92 1015.1
20260510130635 75 316 0.9 1.7 0.00 0.00 0.00 93 1015.1
20260510130133 74 102 1.7 1.7 0.00 0.00 0.00 94 1015.0
20260510125629 74 26 1.7 1.7 0.00 0.00 0.00 96 1014.8
20260510125125 73 60 0.0 2.6 0.00 0.00 0.00 98 1014.8
20260510124623 73 124 0.0 1.7 0.00 0.00 0.00 99 1014.9
20260510124119 73 134 0.0 1.7 0.00 0.00 0.00 99 1014.9
20260510123615 72 51 0.9 1.7 0.00 0.00 0.00 99 1014.8
20260510123111 72 316 0.0 1.7 0.00 0.00 0.00 99 1014.7
20260510122607 71 89 0.9 1.7 0.00 0.00 0.00 99 1014.7
20260510122103 71 44 0.0 0.9 0.00 0.00 0.00 99 1014.5
20260510121600 70 102 0.9 1.7 0.00 0.00 0.00 99 1014.6
20260510121057 70 53 0.0 0.9 0.00 0.00 0.00 99 1014.5
20260510120555 70 80 0.0 0.9 0.00 0.00 0.00 99 1014.5
20260510120056 70 29 0.0 0.9 0.00 0.00 0.00 99 1014.4
20260510115553 69 268 0.0 0.9 0.00 0.00 0.00 99 1014.5
20260510115050 69 72 0.0 0.9 0.00 0.00 0.00 99 1014.2
20260510114546 69 97 0.0 0.0 0.00 0.00 0.00 99 1014.3
20260510114042 69 65 0.0 0.9 0.00 0.00 0.00 99 1014.1
20260510113537 69 309 0.9 0.9 0.00 0.00 0.00 99 1013.9
20260510113035 69 44 0.0 0.9 0.00 0.00 0.00 99 1013.8
20260510112531 68 69 0.0 1.7 0.00 0.00 0.00 99 1013.7
20260510112028 68 66 0.0 0.9 0.00 0.00 0.00 99 1013.7
20260510111525 68 310 0.0 0.9 0.00 0.00 0.00 99 1013.8
20260510111021 68 335 0.0 0.9 0.00 0.00 0.00 99 1013.5
20260510110517 68 269 0.0 0.9 0.00 0.00 0.00 99 1013.5
20260510110013 68 46 0.0 1.7 0.00 0.00 0.00 99 1013.4
20260510105508 68 73 0.0 1.7 0.00 0.00 0.00 99 1013.4
20260510105004 68 35 0.9 0.9 0.00 0.00 0.00 99 1013.3
20260510104501 68 22 0.0 0.9 0.00 0.00 0.00 99 1013.1
20260510103957 68 59 0.0 1.7 0.00 0.00 0.00 99 1013.1
20260510103454 68 130 0.0 1.7 0.00 0.00 0.00 99 1013.0
20260510102950 68 107 0.9 1.7 0.00 0.00 0.00 99 1013.2
20260510102446 68 63 0.0 0.9 0.00 0.00 0.00 99 1013.1
20260510101942 68 1 0.0 1.7 0.00 0.00 0.00 99 1013.0
20260510101440 68 78 0.0 1.7 0.00 0.00 0.00 99 1012.9
20260510100939 68 128 0.0 1.7 0.00 0.00 0.00 99 1012.8
20260510100434 68 99 0.9 1.7 0.00 0.00 0.00 99 1012.6
20260510095931 68 54 0.0 1.7 0.00 0.00 0.00 99 1012.7
20260510095426 68 62 0.0 1.7 0.00 0.00 0.00 99 1012.6
20260510094926 68 114 0.0 1.7 0.00 0.00 0.00 99 1012.5
20260510094420 68 73 0.9 1.7 0.00 0.00 0.00 99 1012.7
20260510093917 68 89 0.0 0.9 0.00 0.00 0.00 99 1012.6
20260510093412 68 59 0.0 0.9 0.00 0.00 0.00 99 1012.6
20260510092909 68 129 0.0 1.7 0.00 0.00 0.00 99 1012.6
20260510092407 68 102 0.0 0.9 0.00 0.00 0.00 99 1012.6
20260510091907 68 130 0.0 1.7 0.00 0.00 0.00 99 1012.5
20260510091404 68 117 0.0 0.9 0.00 0.00 0.00 99 1012.4
20260510090900 68 112 0.0 0.9 0.00 0.00 0.00 99 1012.4
20260510090357 68 164 0.0 0.9 0.00 0.00 0.00 99 1012.5
20260510085853 68 114 0.9 1.7 0.00 0.00 0.00 99 1012.3
20260510085348 68 93 0.0 1.7 0.00 0.00 0.00 99 1012.2
20260510084844 68 104 0.0 1.7 0.00 0.00 0.00 99 1012.2
20260510084341 67 106 0.0 0.9 0.00 0.00 0.00 99 1012.1
20260510083838 67 110 0.0 0.9 0.00 0.00 0.00 99 1012.2
20260510083334 67 116 0.0 1.7 0.00 0.00 0.00 99 1012.0
20260510082830 67 127 0.0 0.9 0.00 0.00 0.00 99 1012.1
20260510082327 67 57 0.0 1.7 0.00 0.00 0.00 99 1011.9
20260510081826 67 94 0.9 1.7 0.00 0.00 0.00 99 1011.8
20260510081322 67 112 0.9 1.7 0.00 0.00 0.00 99 1011.8
20260510080818 67 209 0.9 0.9 0.00 0.00 0.00 99 1012.0
20260510080313 67 344 0.0 0.9 0.00 0.00 0.00 99 1012.0
20260510075811 67 89 0.0 0.9 0.00 0.00 0.00 99 1012.0
20260510075308 67 246 0.0 0.9 0.00 0.00 0.00 99 1012.0
20260510074805 68 37 0.0 1.7 0.00 0.00 0.00 99 1011.7
20260510074302 68 347 0.0 0.9 0.00 0.00 0.00 99 1011.6
20260510073758 68 83 0.0 1.7 0.00 0.00 0.00 99 1011.6
20260510073254 68 132 0.9 1.7 0.00 0.00 0.00 99 1011.6
20260510072749 68 89 0.0 1.7 0.00 0.00 0.00 99 1011.7
20260510072246 68 92 0.9 1.7 0.00 0.00 0.00 99 1011.8
20260510071743 68 126 0.0 0.9 0.00 0.00 0.00 99 1011.8
20260510071239 68 114 0.9 1.7 0.00 0.00 0.00 99 1011.9
20260510070738 68 128 0.0 1.7 0.00 0.00 0.00 99 1011.8
20260510070235 68 87 0.9 0.9 0.00 0.00 0.00 99 1012.0
20260510065735 68 252 0.0 0.9 0.00 0.00 0.00 99 1011.9
20260510065231 68 300 0.0 0.9 0.00 0.00 0.00 98 1011.9
20260510064728 68 309 0.0 0.9 0.00 0.00 0.00 98 1011.7
20260510064226 68 135 0.0 0.9 0.00 0.00 0.00 98 1011.8
20260510063722 68 268 0.0 1.7 0.00 0.00 0.00 98 1012.0
20260510063218 68 169 0.0 1.7 0.00 0.00 0.00 98 1012.1
20260510062715 68 227 0.0 0.9 0.00 0.00 0.00 98 1012.1
20260510062211 68 102 0.0 1.7 0.00 0.00 0.00 98 1012.3
20260510061706 68 143 0.0 0.9 0.00 0.00 0.00 98 1012.0
20260510061204 68 212 0.0 1.7 0.00 0.00 0.00 98 1012.0
20260510060700 68 116 0.0 1.7 0.00 0.00 0.00 98 1012.2
20260510060157 68 246 0.0 0.9 0.00 0.00 0.00 98 1012.2
20260510055653 68 179 0.0 1.7 0.00 0.00 0.00 98 1012.2
20260510055152 68 134 0.9 1.7 0.00 0.00 0.00 98 1012.4
20260510054647 68 83 0.0 1.7 0.00 0.00 0.00 98 1012.3
20260510054143 68 114 0.0 1.7 0.00 0.00 0.00 98 1012.6
20260510053642 68 151 0.0 1.7 0.00 0.00 0.00 98 1012.4
20260510053139 68 103 0.0 1.7 0.00 0.00 0.00 98 1012.5
20260510052635 68 121 0.9 1.7 0.00 0.00 0.00 98 1012.5
20260510052131 68 53 0.0 1.7 0.00 0.00 0.00 98 1012.7
20260510051626 68 198 0.0 0.9 0.00 0.00 0.00 98 1012.8
20260510051124 69 235 0.0 1.7 0.00 0.00 0.00 98 1012.8
20260510050621 69 142 0.0 0.9 0.00 0.00 0.00 98 1012.9
20260510050118 69 123 0.9 2.6 0.00 0.00 0.00 98 1012.9
20260510045615 69 121 0.9 0.9 0.00 0.00 0.00 98 1013.0
20260510045111 69 154 0.9 1.7 0.00 0.00 0.00 98 1012.8
20260510044607 69 97 0.0 1.7 0.00 0.00 0.00 98 1013.0
20260510044105 69 126 0.0 1.7 0.02 0.00 0.00 98 1013.0
20260510043600 69 99 0.0 1.7 0.02 0.00 0.00 98 1012.8
20260510043056 69 72 0.0 1.7 0.00 0.00 0.00 98 1012.8
20260510042555 69 136 0.0 1.7 0.00 0.00 0.00 98 1013.0
20260510042051 68 89 0.0 1.7 0.00 0.00 0.00 98 1013.0
20260510041548 68 134 0.0 1.7 0.00 0.00 0.00 98 1013.2
20260510041045 69 117 0.0 1.7 0.00 0.00 0.00 98 1013.3
20260510040542 68 240 0.0 0.9 0.00 0.00 0.00 98 1013.3
20260510040038 68 210 0.9 0.9 0.00 0.17 0.17 98 1013.3
20260510035534 68 49 0.0 1.7 0.00 0.17 0.17 98 1013.5
20260510035034 68 138 0.9 0.9 0.00 0.17 0.17 98 1013.5
20260510034533 68 145 0.0 0.9 0.00 0.17 0.17 98 1013.5
20260510034029 68 143 0.0 1.7 0.00 0.17 0.17 98 1013.5
20260510033524 68 197 0.0 0.9 0.00 0.17 0.17 98 1013.5
20260510033023 68 216 0.0 0.9 0.00 0.17 0.17 98 1013.6
20260510032519 68 145 0.9 1.7 0.00 0.17 0.17 98 1013.7
20260510032014 68 89 0.0 0.9 0.00 0.17 0.17 98 1013.8
20260510031510 68 246 0.0 0.9 0.00 0.17 0.17 98 1013.8
20260510031006 68 142 0.0 1.7 0.00 0.17 0.17 98 1013.7
20260510030501 68 126 0.0 1.7 0.00 0.17 0.17 98 1013.8
20260510025959 68 230 0.0 0.9 0.00 0.17 0.17 98 1013.4
20260510025456 68 175 0.9 1.7 0.00 0.17 0.17 98 1013.5
20260510024954 68 153 0.9 1.7 0.00 0.17 0.17 98 1013.6
20260510024450 68 133 0.9 1.7 0.00 0.17 0.17 98 1013.5
20260510023946 68 143 0.9 1.7 0.00 0.17 0.17 98 1013.4
20260510023442 68 103 0.0 1.7 0.00 0.17 0.17 98 1013.2
20260510022939 68 100 0.0 1.7 0.00 0.17 0.17 98 1013.2
20260510022439 68 352 0.0 1.7 0.00 0.17 0.17 97 1013.3
20260510021938 68 130 0.0 0.9 0.00 0.17 0.17 97 1013.3
20260510021436 68 76 0.9 1.7 0.00 0.17 0.17 97 1013.1
20260510020933 68 133 1.7 1.7 0.00 0.17 0.17 97 1013.3
20260510020432 68 153 0.9 1.7 0.00 0.17 0.17 97 1013.0
20260510015929 68 119 0.0 1.7 0.00 0.17 0.17 97 1013.2
20260510015425 69 50 0.0 1.7 0.00 0.17 0.17 97 1013.0
20260510014920 69 171 0.9 0.9 0.00 0.17 0.17 97 1012.9
20260510014418 69 307 0.9 1.7 0.00 0.17 0.17 97 1013.1
20260510013914 69 2 0.0 1.7 0.00 0.17 0.17 97 1012.8
20260510013409 69 199 0.0 1.7 0.00 0.17 0.17 97 1013.0
20260510012904 69 230 0.0 0.9 0.00 0.17 0.17 97 1012.7
20260510012359 69 318 0.0 0.9 0.00 0.17 0.17 97 1012.7
20260510011854 69 83 0.0 0.9 0.00 0.17 0.17 97 1012.5
20260510011350 69 89 0.0 0.9 0.00 0.17 0.17 97 1012.3
20260510010846 69 203 0.0 1.7 0.00 0.17 0.17 97 1012.4
20260510010344 69 87 1.7 1.7 0.00 0.17 0.17 97 1012.6
20260510005840 69 175 0.9 2.6 0.00 0.17 0.17 97 1012.5
20260510005336 69 21 0.9 1.7 0.00 0.17 0.17 97 1012.1
20260510004834 69 164 0.9 1.7 0.00 0.17 0.17 97 1012.1
20260510004331 69 15 0.0 1.7 0.00 0.17 0.17 96 1012.2
20260510003829 69 75 0.0 0.9 0.00 0.17 0.17 96 1012.5
20260510003326 69 106 1.7 2.6 0.00 0.17 0.17 96 1012.3
20260510002824 69 261 0.0 1.7 0.00 0.17 0.17 96 1012.5
20260510002322 69 89 0.0 1.7 0.00 0.17 0.17 96 1012.2
20260510001818 69 3 0.0 0.9 0.00 0.17 0.17 96 1012.1
20260510001317 69 229 0.0 0.9 0.00 0.17 0.17 96 1012.1
20260510000812 69 56 1.7 1.7 0.00 0.17 0.17 96 1011.8
20260510000311 69 196 0.0 0.9 0.00 0.17 0.17 96 1012.2
20260509235807 69 18 0.0 1.7 0.00 0.17 0.17 96 1012.0
20260509235306 69 8 0.9 1.7 0.00 0.17 0.17 96 1012.2
20260509234759 69 83 0.0 1.7 0.00 0.17 0.17 96 1011.8
20260509234256 69 347 0.0 1.7 0.00 0.17 0.17 96 1012.2
20260509233754 69 15 0.9 2.6 0.00 0.17 0.17 96 1012.2
20260509233252 69 22 0.9 1.7 0.00 0.17 0.17 96 1012.0
20260509232747 69 45 0.9 2.6 0.00 0.17 0.17 96 1012.4
20260509232245 69 16 1.7 2.6 0.00 0.17 0.17 96 1012.2
20260509231741 69 269 0.0 1.7 0.00 0.17 0.17 96 1012.2
20260509231238 69 60 0.9 1.7 0.00 0.17 0.17 96 1012.3
20260509230736 69 26 0.9 1.7 0.00 0.17 0.17 96 1012.4
20260509230233 69 14 0.9 1.7 0.00 0.17 0.17 96 1012.1
20260509225728 69 293 0.0 1.7 0.00 0.17 0.17 96 1012.3
20260509225224 69 27 3.5 3.5 0.00 0.17 0.17 96 1012.3
20260509224720 69 70 1.7 2.6 0.00 0.17 0.17 96 1012.6
20260509224217 69 331 0.0 1.7 0.00 0.17 0.17 96 1012.4
20260509223714 69 80 0.0 2.6 0.00 0.17 0.17 96 1012.5
20260509223211 69 343 0.0 1.7 0.02 0.17 0.17 95 1012.5
20260509222708 69 39 0.9 1.7 0.05 0.17 0.17 95 1012.6
20260509222203 69 64 0.9 1.7 0.09 0.16 0.16 95 1012.8
20260509221659 69 101 1.7 1.7 0.07 0.15 0.15 95 1012.9
20260509221155 69 136 1.7 1.7 0.05 0.15 0.15 95 1013.0
20260509220652 69 74 0.0 1.7 0.02 0.14 0.14 95 1013.0
20260509220148 69 62 0.9 1.7 0.00 0.13 0.13 95 1013.0
20260509215644 69 94 1.7 1.7 0.00 0.13 0.13 94 1012.8
20260509215140 69 138 0.9 1.7 0.12 0.13 0.13 94 1012.8
20260509214638 69 93 0.9 2.6 0.24 0.13 0.13 93 1012.8
20260509214134 70 293 0.9 4.3 0.24 0.11 0.11 93 1012.8
20260509213631 70 218 0.0 1.7 0.21 0.09 0.09 93 1012.9
20260509213127 71 12 0.9 1.7 0.26 0.07 0.07 92 1012.9
20260509212625 71 67 3.5 3.5 0.26 0.05 0.05 90 1013.0
20260509212122 72 205 1.7 1.7 0.14 0.02 0.02 87 1013.0
20260509211617 73 183 1.7 2.6 0.00 0.00 0.00 84 1012.6
20260509211114 73 123 0.9 3.5 0.00 0.00 0.00 82 1012.3
20260509210611 73 136 2.6 4.3 0.00 0.00 0.00 81 1012.4
20260509210108 74 353 0.9 2.6 0.00 0.00 0.00 80 1012.4
20260509205608 74 278 1.7 2.6 0.00 0.00 0.00 80 1012.3
20260509205103 74 310 0.0 2.6 0.00 0.00 0.00 79 1012.1
20260509204559 74 339 3.5 3.5 0.00 0.00 0.00 79 1012.1
20260509204056 75 302 1.7 3.5 0.00 0.00 0.00 77 1011.8
20260509203552 75 163 2.6 3.5 0.00 0.00 0.00 77 1012.0
20260509203051 75 101 1.7 2.6 0.00 0.00 0.00 77 1012.0
20260509202545 75 350 1.7 3.5 0.00 0.00 0.00 78 1012.0
20260509202041 75 226 2.6 3.5 0.00 0.00 0.00 78 1012.2
20260509201536 75 306 2.6 2.6 0.00 0.00 0.00 79 1012.0
20260509201034 75 330 1.7 6.1 0.00 0.00 0.00 78 1012.2
20260509200533 76 219 0.9 3.5 0.00 0.00 0.00 76 1012.0
20260509200030 77 288 1.7 3.5 0.00 0.00 0.00 74 1011.8
20260509195525 81 313 1.7 4.3 0.00 0.00 0.00 69 1011.9
20260509195025 82 347 1.7 1.7 0.00 0.00 0.00 72 1011.8
20260509194521 82 255 1.7 2.6 0.00 0.00 0.00 72 1011.7
20260509194018 82 225 0.0 2.6 0.00 0.00 0.00 72 1011.7
20260509193518 83 42 1.7 3.5 0.00 0.00 0.00 70 1011.7
20260509193015 83 351 2.6 2.6 0.00 0.00 0.00 69 1011.9
20260509192512 83 227 0.0 2.6 0.00 0.00 0.00 70 1011.7
20260509192007 84 36 2.6 3.5 0.00 0.00 0.00 69 1011.8
20260509191502 84 351 2.6 2.6 0.00 0.00 0.00 68 1011.7
20260509190958 84 255 1.7 2.6 0.00 0.00 0.00 68 1012.0
20260509190455 84 339 2.6 2.6 0.00 0.00 0.00 68 1012.1
20260509185953 85 225 0.0 1.7 0.00 0.00 0.00 67 1011.9
20260509185449 85 59 0.9 3.5 0.00 0.00 0.00 68 1012.0
20260509184946 85 230 2.6 2.6 0.00 0.00 0.00 68 1012.1
20260509184445 84 32 1.7 1.7 0.00 0.00 0.00 69 1012.1
20260509183940 84 225 2.6 3.5 0.00 0.00 0.00 69 1012.1
20260509183435 83 257 0.9 1.7 0.00 0.00 0.00 69 1012.3
20260509182932 84 234 2.6 2.6 0.00 0.00 0.00 68 1012.3
20260509182428 84 186 0.9 5.2 0.00 0.00 0.00 67 1012.2
20260509181925 84 173 0.0 2.6 0.00 0.00 0.00 66 1012.2
20260509181423 85 302 1.7 1.7 0.00 0.00 0.00 64 1012.1
20260509180920 85 219 2.6 3.5 0.00 0.00 0.00 64 1012.0
20260509180415 85 234 1.7 2.6 0.00 0.00 0.00 65 1012.1
20260509175913 84 25 1.7 3.5 0.00 0.00 0.00 65 1012.1
20260509175409 85 278 0.9 2.6 0.00 0.00 0.00 66 1012.3
20260509174905 85 359 0.9 1.7 0.00 0.00 0.00 67 1012.3
20260509174402 86 323 2.6 3.5 0.00 0.00 0.00 64 1012.3
20260509173858 86 61 1.7 2.6 0.00 0.00 0.00 66 1012.3
20260509173357 85 292 1.7 2.6 0.00 0.00 0.00 67 1012.3
20260509172854 85 327 2.6 2.6 0.00 0.00 0.00 66 1012.5
20260509172351 85 317 1.7 4.3 0.00 0.00 0.00 66 1012.4
20260509171847 86 126 0.9 1.7 0.00 0.00 0.00 65 1012.6
20260509171343 86 9 0.9 1.7 0.00 0.00 0.00 65 1012.5
20260509170840 86 151 2.6 5.2 0.00 0.00 0.00 64 1012.5
20260509170335 86 289 2.6 2.6 0.00 0.00 0.00 65 1012.6
20260509165830 86 302 1.7 2.6 0.00 0.00 0.00 64 1012.6
20260509165325 87 246 3.5 3.5 0.00 0.00 0.00 64 1012.4
20260509164821 87 281 1.7 2.6 0.00 0.00 0.00 64 1012.5
20260509164317 86 241 1.7 2.6 0.00 0.00 0.00 65 1012.4
20260509163814 86 16 0.9 1.7 0.00 0.00 0.00 66 1012.5
20260509163311 86 318 1.7 2.6 0.00 0.00 0.00 66 1012.4
20260509162810 85 214 0.9 1.7 0.00 0.00 0.00 70 1012.4
20260509162308 84 243 1.7 2.6 0.00 0.00 0.00 71 1012.6
20260509161805 85 215 0.9 1.7 0.00 0.00 0.00 69 1012.7
20260509161301 85 285 0.0 0.9 0.00 0.00 0.00 70 1012.8
20260509160756 84 157 0.0 1.7 0.00 0.00 0.00 70 1012.8
20260509160253 85 40 0.9 2.6 0.00 0.00 0.00 70 1012.7
20260509155748 85 267 0.9 1.7 0.00 0.00 0.00 71 1012.7
20260509155245 85 300 1.7 1.7 0.00 0.00 0.00 71 1012.3
20260509154741 86 146 0.9 4.3 0.00 0.00 0.00 69 1012.5
20260509154238 84 218 0.9 0.9 0.00 0.00 0.00 74 1012.4
20260509153736 84 31 0.0 2.6 0.00 0.00 0.00 73 1012.5
20260509153231 83 209 0.9 1.7 0.00 0.00 0.00 75 1012.2
20260509152728 82 199 1.7 2.6 0.00 0.00 0.00 77 1012.3
20260509152224 82 199 1.7 2.6 0.00 0.00 0.00 77 1012.3
20260509151721 81 244 1.7 1.7 0.00 0.00 0.00 79 1012.3
20260509151218 81 244 1.7 3.5 0.00 0.00 0.00 79 1012.1
20260509150716 81 307 2.6 2.6 0.00 0.00 0.00 78 1011.8